sat.trackr.live / text

‹ back to catalog

STARLINK-37317

NORAD 69152 · 2026-111E

PAYLOAD ACTIVE UNKNOWN

§ Identity

Operator
Country
US
Launch date
2026-05-21
Launch site
AFETR
Launch vehicle
Mass (kg)
RCS (m²)

Purposes: comms

External: N2YO · Heavens-Above · Gunter

§ Orbital elements

Epoch: 2026-09-19T21:41:12.183936Z

Period
93.85 min
Inclination
53.1588°
Eccentricity
0.0001125
Mean motion
15.34408976 rev/d
Perigee alt
461.9 km
Apogee alt
463.4 km
Semi-major
6,840.8 km
B*
3.8647e-4
RAAN
68.7603°
Arg perigee
89.2509°
Mean anomaly
270.8622°
Rev number
1,880

§ Raw data

STARLINK-373171 69152U 26111E   26262.90361324  .00012707  00000+0  38647-3 0  99972 69152  53.1588  68.7603 0001125  89.2509 270.8622 15.34408976 18808

JSON: /api/v1/satellites/69152 · /tle

For live sub-satellite position, see the globe view (requires WebGL).

§ Visibility from observer

Set your observer location to see the next 7 days of passes ≥ 10°. The values pass through the URL so the page stays shareable.

No JS? Fill the form by hand. The geolocation button needs JavaScript.